Regional Weather Roundup
Issued by NWS

Home | Current Version | Previous Version | Text Only | Print | Product List | Glossary On
Versions: 1 2 3 4 5 6 7 8 9 10 11 12 13 14 15 16 17 18 19 20 21 22 23 24 25 26 27 28 29 30 31 32 33 34 35 36 37 38 39 40 41 42 43 44 45 46 47 48 49 50
000
ASUS43 KMPX 061310
RWRMN
WEATHER ROUNDUP FOR MINNESOTA
NATIONAL WEATHER SERVICE TWIN CITIES/CHANHASSEN MN
800 AM CDT MON JUL 06 2015


NOTE: "FAIR" INDICATES FEW OR NO CLOUDS BELOW 12,000 FEET WITH NO
SIGNIFICANT WEATHER AND/OR OBSTRUCTIONS TO VISIBILITY. N/A MEANS
CURRENT SKY AND/OR WEATHER CONDITIONS ARE NOT AVAILABLE.

MNZ060>063-068>070-061400-
   Twin Cities Metro

CITY           SKY/WX    TMP DP  RH WIND       PRES   REMARKS
$$
MNZ001>005-007-008-013>017-022>024-027-028-061400-
   Northwest Minnesota

CITY           SKY/WX    TMP DP  RH WIND       PRES   REMARKS
THIEF RVR FALL CLOUDY    55  46  71 N16       30.03R
CROOKSTON      MOSUNNY   57  54  88 N13       30.04R
DETROIT LAKES  CLOUDY    61  59  94 N14G20    29.99R FOG
MAHNOMEN       CLOUDY    56  51  84 N13G18    30.00R
$$
MNZ006-009>011-018-025>026-061400-
   North Central Minnesota

CITY           SKY/WX    TMP DP  RH WIND       PRES   REMARKS
LONGVILLE      DRIZZLE   63  61  94 N3        29.93R
GRAND RAPIDS   CLOUDY    61  57  88 N8        29.93R
COOK           CLOUDY    59  57  94 CALM      29.93R FOG
$$
MNZ012-019>021-037-061400-
   Northeast Minnesota

CITY           SKY/WX    TMP DP  RH WIND       PRES   REMARKS
DULUTH         RAIN      63  59  87 N9        29.87R FOG
GRAND MARAIS     N/A     61  59  93 CALM      29.86R
$$
MNZ029>031-032-039>041-046>048-054>057-064-061400-
   West Central Minnesota

CITY           SKY/WX    TMP DP  RH WIND       PRES   REMARKS
WHEATON        CLOUDY    61  59  94 N14G20    29.95R FOG
ELBOW LAKE     LGT RAIN  64  63  94 N10       29.92R
WADENA         LGT RAIN  63  61  94 N7        29.93S
APPLETON       CLOUDY    68  64  88 N14       29.87F FOG
WILLMAR        CLOUDY    68  66  94 N15       29.86F
$$
MNZ033>034-036-042>043-049>051-058-059-061400-
   Central Minnesota

CITY           SKY/WX    TMP DP  RH WIND       PRES   REMARKS
LONG PRAIRIE   DRIZZLE   63  57  82 N12G17    29.90R
LITTLE FALLS   LGT RAIN  63  59  88 N5        29.89
BUFFALO        DRIZZLE   69  67  92 CALM      29.81F
MAPLE LAKE     RAIN      70  69  97 CALM      29.82F
$$
MNZ037-044-045-052-053-061400-
   East Central Minnesota

CITY           SKY/WX    TMP DP  RH WIND       PRES   REMARKS
MORA           RAIN      64  64 100 N6        29.85S
CAMBRIDGE      RAIN      70  63  78 CALM      29.80F
RUSH CITY      CLOUDY    67  66  96 CALM      29.82F
CLOQUET        RAIN      63  61  94 N10       29.88R
$$
MNZ071>073-080-081-089-090-097-098-061400-
   Southwest Minnesota

CITY           SKY/WX    TMP DP  RH WIND       PRES   REMARKS
CANBY          LGT RAIN  66  64  94 N12G20    29.88R
MARSHALL       CLOUDY    68  63  83 N16G22    29.83S
PIPESTONE      LGT RAIN  68  64  88 N8        29.90R
WORTHINGTON    CLOUDY    70  66  88 W3        29.85R
$$
MNZ065>067-074>077-082>085-091>093-061400-
   South Central Minnesota

CITY           SKY/WX    TMP DP  RH WIND       PRES   REMARKS
MANKATO        CLOUDY    70  66  88 CALM      29.81R
ST JAMES       LGT RAIN  72  72 100 CALM      29.80F
FAIRMONT       CLOUDY    70  64  83 S7        29.80F
GLENCOE        RAIN      71  71  99 CALM      29.81R
OWATONNA       LGT RAIN  72  68  88 SE6       29.82F
WASECA         DRIZZLE   70  68  94 S5        29.84F
$$
MNZ078>079-086>088-094>096-061400-
   Southeast Minnesota

CITY           SKY/WX    TMP DP  RH WIND       PRES   REMARKS
AUSTIN         RAIN      72  70  94 SW3       29.82F
$$
ABBREVIATIONS USED IN REMARKS
   TC - TEMPERATURES IN CELSIUS
  WCI - WIND CHILL INDEX
   HX - HEAT INDEX
  VSB - VISIBILITY
$$


USA.gov is the U.S. government's official web portal to all federal, state and local government web resources and services.